Ping Pong Board
บอร์ด: คนไทยเก่งปิงปอง
บอร์ด: การแข่งขันทั่วไทย
บอร์ด: พูดคุยทั่วไป-สินค้ามือ 2
บอร์ด: สินค้ามือสอง On FB
บอร์ด: แปลงสินทรัพย์เป็นทุน
บอร์ด: ขายสินค้าใหม่ มือ 1
บอร์ด: รีวิวอุปกรณ์
บอร์ด : รีวิวอุปกรณ์ On FB
บอร์ด: เทคนิคการเล่นปิงปอง
บอร์ด: การเมืองเรื่องปิงปอง
บอร์ด: บริจาคอุปกรณ์เหลือใช้
บอร์ด: ปรึกษาอาการบาดเจ็บ
บอร์ด: ปิงปองทุกจังหวัด
บอร์ด: ชมรมคนเล่นยางเม็ด
บอร์ด: จับแบบไม้จีน ไม้ญี่ปุ่น
บอร์ด: สนทนาภาษาปิงปอง
บอร์ด: นัดกันไปเรียน ไปเล่น
บอร์ด: Chat Online
บอร์ด: เล่นเกมส์ปิงปอง
บอร์ด: เกมส์ออนไลน์
สำหรับสมาชิก
นามปากกา
รหัสผ่าน
ลืมรหัสผ่าน
สมัครสมาชิกใช้งาน
กระทู้โดนใจชาวปิงปอง
สถานที่รับสอนปิงปอง
บอร์ดซื้อขายสินค้ามือสอง และพูดคุยแลกเปลี่ยนความคิดเห็นกัน
ตั้งกระทู้-เฉพาะกีฬาปิงปอง
ค้นหาข้อมูล :
ค้นหาจาก :
@เรื่อง.........FromAnswer-ReaderLast Answer
ตั้งรับซองปิงปอง โดนตี12/115024/9/2553 8:02:49
XXXขอรับ primorac carbon ST สักไม้ครับXXX สไมลี่3/89824/9/2553 7:45:51
วิธีลอก แล็คเกอร์ หมูหวาน8/140724/9/2553 6:46:44
โปรโมชั่นรองเท้า mizuno เบอร์40-45คู่ละ 999 บาทเท่านั้น มีจำนวนจำกัด (23ก.ย) สรยุทธ5/91824/9/2553 6:27:51
ขายๆม้ Offensive wood nct Fl ครับ kingleten9/113224/9/2553 0:49:44
ขอเชิญเข้าร่วม การแข่งขัน เทเบิลเทนนิส ประจำสัปดาห์ (Battle Of Chamption) ณ ห้างสรรพสินค้า เซ็นทรัล บางนา Chill Chill114/626024/9/2553 0:49:03
ขอแสดงความยินดีกับเฮียเต๊ก daddy4/101823/9/2553 22:54:04
ความไม่เป็นธรรมในวงการกีฬาปิงคนพิการ yooyoot10/123923/9/2553 22:54:03
งานนี้คงต้องรบกวนผู้มีประสบการณ์กับ Primorac Carbon pupui1/74123/9/2553 22:39:31
ไปตีที่เซ็นทรัลบางนามาครับ มือรับ1/93023/9/2553 22:25:44
ขายของด่วน 1234560/83723/9/2553 21:54:15
มีข่าวดี มาบอก ขณะนี้ ช่องกีฬา ปิงปอง ย้ายมาอยู่ช่อง NBT 19 สยามกีฬา ขี้โม้2/103523/9/2553 21:12:44
แผ่นที่3 ขายยางปิงปอง JOOLA DRUM CWX สีดำสภาพ 90%+ รูปจริง ฟองน้ำใหม่ๆ ราคา 290 มาก่อนได้ก่อนอายุ7วัน สรยุทธ8/106823/9/2553 20:56:27
เชื่อหรือไม่ อดีตนักกีฬาทีมชาติไทยบางคน ปัจจุบันไม่มีงานทำ panther9/165923/9/2553 20:34:22
ประมูล gergely ตูดผีเสื้อ (ปิดประมูลวันพุธ 24.00 น) หนุ่มเกียกกาย75/284123/9/2553 18:58:26
มาลองทายกันครับ TKMP38/163123/9/2553 17:39:07
เสื้อปิงปองมือ 2 Butterfly, Mizuno จัดส่งฟรี TONG89/113723/9/2553 17:12:01
ใครรู้บ้างว่า Ryu Seung Min ใช้ไม้กับยาง อะไร ฮิโนกิ3/135123/9/2553 16:37:31
ขาย btf ishlion tenergy3/104223/9/2553 16:24:05
ขายไม้ Andro Kinetic CF Light OFF+ bueipong17/179923/9/2553 15:55:22
เชิญเข้าร่วมการแข่งขัน กีฬาเทเบิลเทนนิสคนพิการ นนทบุรีคัพย์ครั้งที่ 6 Naiaead0/83223/9/2553 15:54:23
ขายไม้ Bty TimoBoll Spirit FL รุ่นเก่า ตูดผีเสื้อ ไม่มีโค๊ดนัมเบอร์ สภาพตามรูป ครับ เหนือ ยกกำลัง227/123323/9/2553 15:50:34
รองเท้า Yasaka&BTYมือ1ครับ หมูกรอบ39/238623/9/2553 14:43:34
ขาย tibhar nimbus sound ครับ 500พร้อมส่ง สีแดงสภาพดีครับ costheta25/193123/9/2553 14:28:29
นักกีฬาท่านใดซ้อมปิงปองและแบดมินตันด้วยครับ เอ๋สมุย11/104123/9/2553 14:08:15
ขายยาง optimum mp เด็กดี1/65623/9/2553 11:44:21
รับไม้ Nittaku KVT ด้าม FL Nitt18/128023/9/2553 11:34:35
รบกวนแนะนำ ไม้ กับ ยาง ทีครับ ฮิโนกิ8/78323/9/2553 11:31:29
ประมุลเสื้อ mizuno แถมคอกลมอีก1ตัวครับ mono27/125223/9/2553 9:23:52
ขออนุญาติขายไม้ BTY SARDIUS ae_ett16/196923/9/2553 8:57:43
ขายยกชุดไม้โดนิค+ยางเฮอริเคน2 ไม่แพง Timo Back5/94223/9/2553 8:20:53
ไม้นี้ ไม้อะไร? ยี่ห้ออะไร? ราคาเท่าไหร่? SuSa18/133123/9/2553 1:29:26
สนามฝึกซ้อมปิงปองแห่งใหม่ (เจ๋งกว่าเดิม) ของชาวอุตรดิตถ์ พร้อมใช้งานแล้ว kakui1/78723/9/2553 0:23:07
ยางhaifu Whale II (factory tune) +เสื้อ Li Ning ลายเกล็ดมังกรทอง WTTC2010 moscow 700 บาท vipmember1/76523/9/2553 0:15:36
!!!-อยากได้กาวปิงปองอะครับ-!!! DoMiTa4011/117822/9/2553 23:50:06
รบกวน เพื่อนสมาชิกท่านใดมีภาพถ่ายนักปิงปองไทย(เด็กๆยิ่งดี)ในท่าตีปิงปอง tee-noy4/113722/9/2553 23:39:01
ขอความช่วยเหลือหน่อยครับ sarachai4/70222/9/2553 23:03:40
-ขายรองเท้าWin-1 Shoe - Red- Blue และยางHaifu Whale II factory tunned bryce2123/193422/9/2553 22:19:52
ขาย CTT Pro Tour Carbon Flex ราคาย่อมเยาว์ nobutakajung12/112722/9/2553 21:52:34
ขายเสื้อ BTY ลายสวยมากๆครับ หมูกรอบ7/135422/9/2553 21:49:26
ขายรองเท้า Mizunoของใหม่ 2คู่ครับ หมูกรอบ8/182322/9/2553 18:49:40
ช่วยแนะนำ บทความดีหน่อยๆ ครับ ฮิโนกิ1/68022/9/2553 18:47:13
ถึงคุณ เม็ดชนบท vorno0/78822/9/2553 17:00:10
ขาย primorac carbon FL ตูดเงินสภาพใหม่ไม่เคยใช้ boyz19/171722/9/2553 15:53:02
สนามจัดเเข่งบนห้างที่ไหนดีครับ มีครบทั้ง6ข้อนี้ สนใจอยากเช่าครับ panther13/108622/9/2553 15:11:23
อยากให้อ่าน เรื่องความรู้เกี่ยวกับ ไม้ ชั้นเดียว และรีวิว Darker speed 10 zincin10/110222/9/2553 15:05:48
VIOLIN or ACOUSTIC ของNITTAKU ขอซื้อต่อครับ TohRC928/212922/9/2553 14:51:44
เจอ Timo boll zlc ด้าม ST มือ1 เหลือ 5440บาทเอง creative3/121622/9/2553 14:23:40
ขายค่ะ nok1237/131122/9/2553 12:57:54
ลองถามหยั่งเชิง ขายไม้เปล่า B-3004 Sekson9/161122/9/2553 11:42:46
ขาย ยาซาก้า ฟิวชั่น สีแดง ตี5นาที Timo Back7/103922/9/2553 9:56:04
ขอพักการซื้อขายในบอร์ด ae_aphi32/149622/9/2553 9:42:58
งานนี้คงต้องรบกวนผู้มีประสบการณ์กับ Primorac Carbon pupui19/220222/9/2553 7:52:37
ขายยางจีน แหล่มๆ สักแผ่น costheta39/165421/9/2553 23:44:38
ถามราคาไม้ clipper wrb มือ1 ครับ มิสเตอร์บอส8/86621/9/2553 23:32:20
ใครมีเม็ดยาว Hallmark Original สีแดง ขายบ้างคับ pongmusic10/80121/9/2553 23:30:06
รับยางเม็ดsupperblockราคาตามสภาพคับ80-95เปอร์เซ็น ติดต่อ 0865045803 ตี๋ สรยุทธ1/59821/9/2553 22:31:05
พี่น้องท่านใดมีคับ Nai198017/122321/9/2553 22:12:14
ขายไม้ปิงปอง paichayon2/125221/9/2553 20:57:18
ยาง yasaka @ LKT @ ถูก ๆ ครับ maze18/118321/9/2553 19:36:22
เข้ามาด่วนๆๆ gotza55565/109321/9/2553 19:09:10
รับยางพเม็ดยาว supperblock สภาพ80-95เปอร์เซ็น ปอนด์pattaya20/86721/9/2553 18:31:19
รับซื้อกาว Fair Chack [b] Light [/b] peterpan0933/83321/9/2553 17:04:50
ขายยาง andro revolution fire parinya5/154421/9/2553 16:33:55
รับ viscaria fl สภาพดี ng2ng0/70321/9/2553 16:21:08
ขายเสื้อมือ สอง 50-120บาท Phare37/123321/9/2553 16:04:08
ขายยางแผ่นสีเหลี่ยมราคาถูก จนจัด3/103821/9/2553 14:05:07
มีไม้ INNERFORCE - AL - FL มาเสนอขาย นาธาน โอโม่14/145321/9/2553 13:39:06
หาที่ , เพื่อนตีปิงปอง เราอยู่แถวบ้านสมเด็จ ค่ะ รบกวนด้วยค่ะรบกวนอย่างแรง desperado17/136621/9/2553 12:21:53
ใครมียางนี้บางครับ ศาลายา0/77221/9/2553 11:35:41
คุณรู้สึกอย่างไรถ้ามีคน ออกมาบอกว่าคนที่เล่นปิงปองคืนคนที่ทำลายทรัพยากรธรรมชาติทางอ้อม Tinา๐l3alL18/119721/9/2553 11:06:55
ขาย Sinus Alpha ดำ max Bobbie9/110321/9/2553 10:59:12
ขายยาง AIR Scirocco แดง ใหม่ๆ bueipong8/114121/9/2553 10:12:59
ขาย เด็กดี3/97621/9/2553 9:21:39
ขายไม้ Donic Burn off สภาพ 99% 1400 บาทครับ kingleten12/132521/9/2553 6:56:56
ขายไม้ Dr. Bamboo Def + ครับ Nevery1/83621/9/2553 0:19:58
ขายยางเรียบ Hallmark รุ่น Green Power สีดำ-สีแดง สภาพ 95 % หนุกหนาน11/140420/9/2553 23:50:15
ขายไม้ samsonov stratus carbon ด้าม FL สภาพดีมาก 95% ครับ natnaaut25/140120/9/2553 22:30:21
ถามเรื่อง ด้ามไม้ ครับ satanapat_amp6/88320/9/2553 22:23:21
รับซื้อยาง mark147941/74520/9/2553 20:20:53
มีใครเคยใช้ไม้จีน (CS)มาตีแบบไม้ทั่วไปมั้ยคะ desperado5/89820/9/2553 19:57:40
รับฝึกสอนเทเบิลเทนนิส ชาย - หญิง อายุไม่เกิน 13 ปี ครับ ฟรีๆๆๆๆ ที่ ศิริราช ด่วน BooM!!!8/119820/9/2553 18:10:12
อยากได้ยาง Butterfly Tenergy 05 สีดำ bbam196620003/104020/9/2553 18:04:06
ขาย RENANOS HOLD ดำ SUPER THICK damdam9/144220/9/2553 16:44:29
ขายไม้ปิงปอง 4 ไม้ Butterfly และ XIOM onipikaju88/461120/9/2553 14:50:09
ขาย Tenegy มือสอง.. nuinicolas9/116620/9/2553 13:50:31
ขายอุปกรณ์ปิงปองนิดหน่อยครับ redchicken55516/125320/9/2553 13:45:12
กีฬาสัมพันธ์ กลุ่มอุตสาหกรรมมาบตาพุด ครั้งที่ 21 ปี 2553 T.A.10/144820/9/2553 13:03:17
เสื้อปิงปองมือ 2 Butterfly, Nittaku, Mizuno, TSP จัดส่งฟรี Cocoa121/322620/9/2553 12:13:54
เป็นไปไดไหม ถ้าอุปกรณ์ปิงปองทุกเเบรนดื ขายในร้านเดียวกัน เช่น buterfly +donic+joola panther8/127720/9/2553 10:38:01
AMULTART 550 $ coffee guide21/121920/9/2553 10:24:21
รับไม้ kong linghui special ไม่เกี่ยงสภาพ เพอสัน34/227720/9/2553 9:41:42
Sadius Vs Gergely Tinา๐l3alL7/174720/9/2553 8:20:33
ดูเล่นเพลินๆ coffee guide12/130220/9/2553 6:55:55
มีใครรุ้จักไม้นี้มั้ง mark147940/79819/9/2553 23:46:39
ฝากรูปให้น้อง mark ดูหน่อยครับ เม็ดแดง8/91219/9/2553 23:01:31
รับยางเม็ดสั้น LEOPARD ดำ juneonion0812/88819/9/2553 22:59:12
รับซื้อกาวติดยางปิงปอง mark147940/79919/9/2553 22:34:46
ขอรับ Kong ling hui Special ไว้ดูแลซักอัน pupui8/98419/9/2553 22:13:05
ขอรับ SADIUS chat vios25/135719/9/2553 22:03:38
รีวิวยาง nittaku narucross ex soft B7000M2/188819/9/2553 21:57:26
อนุญาติตั้งรับไม้ viscaria ตูดผีเสื้อ(สีดำ) สภาพดีๆครับ natnaaut6/86719/9/2553 18:42:20
ขอแลก viscaria ตูดผีเสื้อ กับ boll spirit fl ตูดเงิน ขอรับ....... พรพจน์17/114619/9/2553 17:11:29
ถึงผู้รอบรู้ พะโล้5/79419/9/2553 16:14:32
*** ขายไม้มือ 1 ,มือ 2 และยางแผ่นสี่เหลี่ยม *** ลดราคา YMBA2057/345719/9/2553 14:32:22
ไม้ Mizutani JUN ขอแลกกับไม้ Tenor หรือ TImo Boll ZLC natnaaut7/108919/9/2553 12:20:00
มีไม้ Spirit ด้าม FL ตูดดำ ขอแลกกับไม้ viscaria ด้าม FL ตูดดำครับ natnaaut38/128619/9/2553 12:19:35
ขายไม้พร้อมยาง pingpong_crazy9/130219/9/2553 11:28:26
จากที่ได้ลอง ยาง h3 neo h2 neo นิว8ริ้ว9/131419/9/2553 11:24:55
ระเบียบการจัดการแข่งขันเทเบิลเทนนิส ลพบุรี โอเพ่นครั้งที่ 1 แก้ไขล่าสุด คราฟฟฟ ต๊ะTNN246/80819/9/2553 10:06:33
ขายANDRO SUPER CORE CARBON LIGHT+F1+ยางเม็ด คุณชายโจวแซ่จิว18/153819/9/2553 6:49:37
เรียน ทุกท่าน ว่าอย่าถือสา คูณ mark14794 maze0/82219/9/2553 6:44:48
ต้องการคำแนะนำค่ะ desperado7/99818/9/2553 23:51:15
ขายไม้ BTY KORBEL SPEED FL สภาพ 90%+ T.Bankz15/147618/9/2553 23:47:16
Sell:SambaNTec Toppycandy1/83118/9/2553 23:21:05
ถึงผู้รอบรู้ พะโล้0/58118/9/2553 23:03:24
ถามราคาไม้บัตครับ TKMP7/100318/9/2553 22:53:12
TT JOURNEY : GO! SINGAPORE danggi42/354518/9/2553 22:31:46
รับซื้อ Timo boll zlc 0o.Farm.o09/125518/9/2553 22:31:08
ด้ามไม้ปองปอง sasa2/85318/9/2553 22:16:50
เรื่องฟองน้ำ B7000M15/112518/9/2553 22:15:46
แย่แล้วค่ะต้องการความช่วยเหลือค่ะ!!ด่วน!! desperado5/113518/9/2553 21:54:04
ขาย ยาง ถูก ๆๆ ครับบ สภาพ 98 % maze24/129218/9/2553 21:43:18
To คุณ เอ๋ BL dodo.com4/97118/9/2553 21:07:50
รับไม้ Mizutani Jun ST Bobbie22/162318/9/2553 21:02:40
มีไม้รุ่นไหน ยี่ห้ออื่น ที่ฟิวคล้าย Timo Boll Spirit บ้างครับ งบมีจำกัดน่ะครับ Ashampoo28/203818/9/2553 19:54:12
รับไม้ BUTTERFLY TIMO BOLL W7 p_pig0/84318/9/2553 19:50:55
อยากได้ Primorac ด้ามFL ใครมีช่วยหน่อยนะคับ natha28/141518/9/2553 19:12:21
รับซื้อ Iolite ST ครับ สนใจปล่อย จะแลก แจ้งความประสงค์กันมาเลยครับ เอ๋ BL52/170918/9/2553 17:22:49
สถานที่ตีปิงปอง ณ ห้างเซ็นทรัล บางนา และ ภาพบรรยากาศของสถานที่ และการฝึกสอน Chill Chill154/1110518/9/2553 14:57:00
saleee $$$ primorac carbon ตูดผีเสื้อ fl เหลา st สภาพไม่สวย costheta22/110418/9/2553 14:22:53
รับไม้KILLER SPIN ตระกูล Diamond GAIA26/139318/9/2553 13:12:51
รับซื้อ kreanga carbon มือสองครับ mrmeng1/106918/9/2553 12:43:00
มีไม้ carbon 1 อันมาขอแลก damdam59/285818/9/2553 12:24:23
ต้องการขายยาง Sriver G2 แดง และ ดำ จุ้ย 5/111318/9/2553 11:26:02
((((( รับ )))) ยางจีนซักแผ่น DHS NEO HURRICANE 3 แดงนะครับ nobutakajung9/113618/9/2553 10:33:18
ขายไม้คาร์บอน2ด้านเด้งไม่เท่ากัน OleW15/123218/9/2553 9:48:39
ใครพอจะแบ่งปันTIMOBOL-spiritมือสองไหมครับขอราคาไม่แรง nuishiki8/110118/9/2553 9:46:50
ถึง พี่ ป๊อป (Pimple Lover) chang_pkp3/98718/9/2553 9:04:23
ขายไม้ถูก ๆๆสักอันครับบ xiom maze14/108518/9/2553 8:38:51
ขายไม้ fukuhara AI special ครับ takizawa13/160318/9/2553 7:31:45
เปิดจองยางair note0/79718/9/2553 1:57:29
ปลายเดือนตุลาคม จะไปแข่งหมากล้อมที่ มหาลัยเชียงใหม่ มีที่ไหนตีปิงปองแนะนำบ้างครับ kunut0/68018/9/2553 1:46:25
แจก Catalog Butterfly2010-2011 ใหม่สุดครับ หมูกรอบ11/141618/9/2553 1:44:00
กลับมาอีกครั้ง สำหรับ การแข่งขันประจำสัปดาห์ Battle of Chamption ณ ห้าง เซ็นทรัล บางนา (มีการเพิ่ม การจัดแข่งขันในรุ่นเยาวชน) Chill Chill6/82317/9/2553 23:59:14
ขอความช่วยเหลือด้วยครับ ต้องการเบอร์พี่ต้อมบ้านปู RoMeoZa1/72317/9/2553 23:26:51
ขายไม้ Yasaka Max Carbon 3D st ครับ kingleten3/79917/9/2553 23:23:17
ขายเสื้อ li-ning ลายมังกรสวยเทพๆ ราคา390บาทเท่านั้น มีเฉพาะเบอ์M (24ส.ค) สรยุทธ12/134217/9/2553 21:34:31
ขายเสื้อButterflyสวยเทพๆ ราคา390บาทเท่านั้น มีเฉพาะเบอ์M (26ส.ค) สรยุทธ12/118117/9/2553 21:34:25
โปรโมชั่นรองเท้า li-ning รุ่น 2YMD649-3 ราคา1900บาทเท่านั้น มีจำนวนจำกัด (12ส.ค) สรยุทธ16/124917/9/2553 21:34:21
ถึงคุณ น้อบ นามปากกา Tinา๐l3alL หมูหวาน1/83417/9/2553 20:39:00
ชิงชนะเลิศสโมสรประจำปี 2553 bbbza3/114017/9/2553 19:41:37
ขายยาง ขำๆ ตามสภาพครับ nobutakajung14/110917/9/2553 19:39:31
ขอรับSADIUAS อ๊อดบางกรวย0/72617/9/2553 18:21:48
รับสมัครครู 1 ตำแหน่ง มิตรภาพ5/114417/9/2553 18:02:05
ขอรับไม้M.MAZE ด้ามST อ๊อดบางกรวย10/123117/9/2553 17:26:48
มีของคู่กันมาให้เลือก jun FL- amultart SI welcome18/183917/9/2553 17:20:03
ขายไม้เก่า kenny st ท้ายผีเสื้อ logo เก่าพร้อมยาง xb72012/130217/9/2553 17:09:22
ขายยาง 250 บาท เเละไม้ mazunov 700 บาท sakura30/196617/9/2553 16:51:30
ขายไม้+หนัง(ด่วน) satanapat_amp22/178717/9/2553 16:31:34
ฝากรูปให้ คุณ back hand ครับ panyapol18/113217/9/2553 16:29:54
รับ Gergely มือสองๆๆๆ dodo.com28/112117/9/2553 16:27:10
เปิดคลังสินค้า อีกครั้ง note4/116117/9/2553 15:07:53
เปิดรับสมัคร ไฟท์ คลับทีมสองคน วันที่ 25 กันยายน 2553 panther21/125517/9/2553 14:09:18
ถามผู้มีประสบการณ์ครับ kaka13/148617/9/2553 13:50:15
ขายไม้ kenny styleอายุประมาณ35ปี manoch16/175917/9/2553 11:28:38
FUSION ดำ 199 บาท juneonion08110/104917/9/2553 11:20:54
เพื่อนๆชอบใช้ลูกปิงปองสีอะไรครับ รุ่นไหนบ้าง ballnaja21/407217/9/2553 9:50:44
ถึงคุณหมูหวานนะครับ ถ้าเจอกรุณาติดต่อกลับหน่อยครับ Tinา๐l3alL2/79417/9/2553 9:33:21
ขาย ไม้ Jiant Dragon KRIS II (fl) พร้อม ยาง AVX MO (OX) Red chang_pkp10/95017/9/2553 8:43:13
ขาย Apollo แผ่นเดียวครับ หมูกรอบ3/92617/9/2553 8:35:10
ขายยาง ANDRO ROXON kom_cha11/121617/9/2553 8:17:09
โครงการสานฝันช่วยน้องซื้อไม้ปิงปองหน่อย..... นาธาน โอโม่19/118217/9/2553 8:11:09
แรงค์กิ้งใหม่ tuy09070/78017/9/2553 5:24:28
แผ่นที่3 ขายยางปิงปอง JOOLA DRUM CWX สีดำสภาพ 90%+ รูปจริง ฟองน้ำใหม่ๆ ราคา 290 มาก่อนได้ก่อนอายุ7วัน สรยุทธ6/149617/9/2553 1:35:38
มีไม้ 1 ไม้ มาขอแลกนะครับ Decade49/180717/9/2553 1:03:51
ต้องการเเลกไม้คับ sardius กับ timo boll spirit คับ pornza12/119717/9/2553 0:08:47
ขายไม้ Timo boll Zlc คนที่ว่าผมหลอกลวงก้อเข้ามาดูได้นะครับ ไอ้... asdfghjk11/169016/9/2553 23:53:19
ขายไม้ Yasaka Carbon Max 3D 900 บาท ครับ kingleten9/99616/9/2553 23:48:45
อยากได้ไม้ตระกูลเดียวกับ buttterfly senkoh 5 แบบcs ใครมีเสนอมาครับ จั๊กจี้2/68716/9/2553 23:30:27
ขายไม้ XIOM ถูก ๆ 500 บาท แบบ CS จั๊กจี้2/98616/9/2553 23:27:34
ไม้ ของ ZHANG JIKE ครับ(ของแท้) toono17/543416/9/2553 23:12:25
ขาย...JUN... อ๊อดบางกรวย11/148216/9/2553 22:55:29
จัดทัวร์ไปเที่ยวต่างจังหวัด เที่ยวด้วยตีปิงปองด้วย10ที่นั่ง panther52/238916/9/2553 22:23:05
มี TIMOBOLL ALC-FL ไม่มีรอย พร้อมกล่อง อยากแลก ด่วน ชางมิน23/163416/9/2553 21:41:33
รู้หรือไม่ว่ากติกาของกีฬา TABLE TENNIS กับ กฎข้อบังคับสำหรับการแข่งขันในระดับนานาชาติ ไม่เหมือนกัน Pimple Lover9/97616/9/2553 21:33:11
เปรียบเทียบยาง globe 999 2.2 กับ globe magic ward ให้หน่อยคร๊าบบ migkie4/128416/9/2553 21:18:15
ขายไม้โดนิค ไดอะโบล เซนโซ่ กลาสไฟเบอร์ Timo Back5/85016/9/2553 21:10:25
สอบถามราคาครับ iolite ตอนนี้ราคาประมาณเท่าไหร่ interfear21/143216/9/2553 16:57:58
ขาย TG 05(2.1) ดำ 1200 บาท พร้อมส่ง ems (งดต่อรองครับ) chang_pkp13/101616/9/2553 16:47:50
โค๊ช=รับสมัครนักกีฬาทุกเภทวัยตั้งแต่รุ่น8,10,12,15,18,21,ทั่วไป,45 ปี ทุกสนามแข่งขันเล็กและใหญ่ สนามละ2คน เป็นเพื่อนร่วมทีมและแข่งขันโดย... ราชาตะวันออก0/78716/9/2553 16:45:26
รับ hexer มือ 1 มือ 2 สีเเดงด่วน พายุ8/82216/9/2553 16:21:17
ขายยางปิงปอง 2 แผ่นครับ Zigzag3/88416/9/2553 15:58:06
ขาย aluminum case BTY มือ 1 xb72014/123016/9/2553 15:48:33
รับซื้อไม้ Yasaka Gatien Carbon 3d ด้าม FL abs sound5/75616/9/2553 14:39:45
เอารูปมาให้พี่ ng2ng ชมครับ TKMP25/146516/9/2553 14:16:36
ต้องยาง LKT Black Power มือสอง parinya22/180216/9/2553 13:39:46
รับซื้อไม้ MATSUSHITA PRO MODEL ด้าม ST ตูดผีเสื้อ สภาพ 90 % mintwing70/60116/9/2553 13:35:19
รับซื้อยางBryce speed ด้านแดง สภาพดี gotza55560/60016/9/2553 13:26:31
ขายยางเเดง สามเเผ่น เหมา 1200 บาท bryce+ neos+ pryde panther6/87716/9/2553 13:19:30
Page :  1  2  3  4  5  6  7  8  9  10  11  12  13  14  15  16  17  18  19  20  21  22  23  24  25  26  27  28  29  30  31  32  33  34  35  36  37  38  39  40  41  42  43  44  45  46  47  48  49  50  51  52  53  54  55  56  57  58  59  60  61  62  63  64  65  66  67  68  69  70  71  72  73  74  75  76  77  78  79  80  81  82  83  84  85  86  87  88  89  90  91  92  93  94  95  96  97  98  99  100  101  102  103  104  105  106  107  108  109  110  111  112  113  114  115  116  117  118  119  120  121  122  123  124  125  126  127  128  129  130  131  132  133  134  135  136  137  138  139  140  141  142  143  144  145  146  147  148  149  150  151  152  153  154  155  156  157  158  159  160  161  162  163  164  165  166  167  168  169  170  171  172  173  174  175  176  177  178  179  180  181  182  183  184  185  186  187  188  189  190  191  192  193  194  195  196  197  198  199  200  201 
[ First ] [<< back ] [ next>> ] [ Last ]  
VIP SPONSOR

 

ห้ามอย่านำสินค้าหนีภาษี - สินค้าหิ้วเข้ามาเอง - สินค้าปลอม มาจำหน่ายในเวปนี้
 
© 2020 All Rights Reserved
Powered by
ThaiWebWizard.com